W2CS Weather Reports


Display with metric or nautical units.
time (UTC)temp
F
wind
direction
speed
MPH
gust
MPH
rain 1hr
in
rain 24hr
in
rain mn
in
humidity
%
barometer
mb
20260504211549 59 333 1.0 6.0 0.00 0.00 0.00 68 1010.9
20260504211039 59 9 2.0 4.0 0.00 0.00 0.00 66 1010.9
20260504210541 59 357 2.0 4.0 0.00 0.00 0.00 66 1010.8
20260504210051 59 14 2.0 6.0 0.00 0.00 0.00 66 1010.9
20260504205539 59 50 2.0 6.0 0.00 0.00 0.00 66 1010.8
20260504205041 60 16 1.0 6.0 0.00 0.00 0.00 64 1010.7
20260504204553 60 346 1.0 5.0 0.00 0.00 0.00 65 1010.6
20260504204038 60 14 1.0 5.0 0.00 0.00 0.00 65 1010.6
20260504203539 60 7 1.0 5.0 0.00 0.00 0.00 65 1010.4
20260504203117 60 10 2.0 5.0 0.00 0.00 0.00 64 1010.5
20260504202539 60 264 2.0 4.0 0.00 0.00 0.00 64 1010.4
20260504202038 61 337 2.0 9.0 0.00 0.00 0.00 63 1010.4
20260504201552 61 345 2.0 9.0 0.00 0.00 0.00 63 1010.6
20260504201039 61 353 2.0 7.0 0.00 0.00 0.00 63 1010.5
20260504200538 62 345 2.0 7.0 0.00 0.00 0.00 61 1010.6
20260504200051 62 29 1.0 6.0 0.00 0.00 0.00 61 1010.6
20260504195539 63 352 1.0 5.0 0.00 0.00 0.00 62 1010.5
20260504195043 63 12 1.0 6.0 0.00 0.00 0.00 59 1010.5
20260504194559 63 55 1.0 6.0 0.00 0.00 0.00 60 1010.4
20260504194041 63 351 2.0 8.0 0.00 0.00 0.00 57 1010.6
20260504193540 64 29 2.0 8.0 0.00 0.00 0.00 55 1010.7
20260504193052 64 357 2.0 8.0 0.00 0.00 0.00 54 1010.7
20260504192538 64 4 2.0 6.0 0.00 0.00 0.00 55 1010.8
20260504192038 64 1 2.0 8.0 0.00 0.00 0.00 55 1010.6
20260504191547 64 10 2.0 8.0 0.00 0.00 0.00 54 1010.7
20260504191039 64 3 3.0 8.0 0.00 0.00 0.00 56 1010.8
20260504190541 65 337 2.0 7.0 0.00 0.00 0.00 55 1010.9
20260504190105 64 324 1.0 10.0 0.00 0.00 0.00 57 1010.8
20260504185539 64 6 2.0 10.0 0.00 0.00 0.00 57 1010.8
20260504185040 65 347 2.0 10.0 0.00 0.00 0.00 56 1010.8
20260504184559 66 353 2.0 5.0 0.00 0.00 0.00 58 1010.9
20260504184039 65 332 2.0 5.0 0.00 0.00 0.00 57 1011.1
20260504183542 65 16 2.0 5.0 0.00 0.00 0.00 57 1011.0
20260504183048 65 36 2.0 4.0 0.00 0.00 0.00 57 1011.0
20260504182542 65 338 1.0 4.0 0.00 0.00 0.00 59 1011.1
20260504182039 65 14 2.0 4.0 0.00 0.00 0.00 61 1011.0
20260504181549 65 359 2.0 8.0 0.00 0.00 0.00 60 1010.9
20260504181039 65 30 2.0 8.0 0.00 0.00 0.00 57 1010.9
20260504180541 65 8 2.0 8.0 0.00 0.00 0.00 59 1011.0
20260504180051 65 335 2.0 5.0 0.00 0.00 0.00 59 1011.0
20260504175538 66 31 1.0 5.0 0.00 0.00 0.00 59 1010.8
20260504175040 66 32 2.0 5.0 0.00 0.00 0.00 59 1010.8
20260504174601 66 26 1.0 4.0 0.00 0.00 0.00 59 1010.9
20260504174039 66 26 2.0 4.0 0.00 0.00 0.00 61 1010.9
20260504173539 66 14 2.0 4.0 0.00 0.00 0.00 58 1010.9
20260504173056 66 348 2.0 7.0 0.00 0.00 0.00 58 1010.9
20260504172539 65 354 2.0 7.0 0.00 0.00 0.00 59 1011.0
20260504172041 65 345 2.0 5.0 0.00 0.00 0.00 61 1011.0
20260504171551 65 14 2.0 4.0 0.00 0.00 0.00 60 1011.0
20260504171039 65 20 2.0 4.0 0.00 0.00 0.00 64 1011.0
20260504170539 65 359 2.0 4.0 0.00 0.00 0.00 60 1011.1
20260504151038 65 11 1.0 3.0 0.00 0.00 0.00 59 1011.8
20260504150536 65 355 1.0 7.0 0.00 0.00 0.00 57 1011.9
20260504141038 63 103 1.0 4.0 0.00 0.00 0.00 61 1012.1
20260504140536 63 1 1.0 4.0 0.00 0.00 0.00 61 1012.1
20260504140106 63 359 1.0 4.0 0.00 0.00 0.00 60 1012.2
20260504130539 60 0 0.0 4.0 0.00 0.00 0.00 64 1012.3
20260504110539 44 0 0.0 1.0 0.00 0.00 0.00 89 1012.4
20260504110116 43 0 0.0 1.0 0.00 0.00 0.00 90 1012.3
20260504100538 41 0 0.0 0.0 0.00 0.00 0.00 88 1012.2
20260504090117 42 0 0.0 0.0 0.00 0.00 0.00 88 1011.7
20260504081548 41 0 0.0 0.0 0.00 0.00 0.00 88 1011.7
20260504081039 41 0 0.0 0.0 0.00 0.00 0.00 89 1011.7
20260504080541 41 0 0.0 0.0 0.00 0.00 0.00 89 1011.8
20260504050538 38 0 0.0 0.0 0.00 0.00 0.00 89 1011.5
20260504045542 38 0 0.0 0.0 0.00 0.00 0.00 89 1011.4
20260504045038 38 0 0.0 0.0 0.00 0.00 0.00 89 1011.5
20260504044559 38 0 0.0 0.0 0.00 0.00 0.00 88 1011.5
20260504044038 38 0 0.0 0.0 0.00 0.00 0.00 88 1011.4
20260504043539 38 0 0.0 0.0 0.00 0.00 0.00 88 1011.5
20260504043054 37 0 0.0 0.0 0.00 0.00 0.00 88 1011.4
20260504042536 37 0 0.0 0.0 0.00 0.00 0.00 87 1011.6
20260504042035 36 0 0.0 0.0 0.00 0.00 0.00 87 1011.6
20260504041550 36 0 0.0 2.0 0.00 0.00 0.00 86 1011.6
20260504041039 36 0 0.0 2.0 0.00 0.00 0.00 85 1011.4
20260504040541 36 20 0.0 2.0 0.00 0.00 0.00 85 1011.4
20260504040052 36 0 0.0 2.0 0.00 0.00 0.00 84 1011.3
20260504035539 36 0 0.0 2.0 0.00 0.00 0.00 84 1011.3
20260504035039 36 0 0.0 0.0 0.00 0.00 0.00 84 1011.3
20260504034554 36 0 0.0 0.0 0.00 0.00 0.00 83 1011.2
20260504034040 37 0 0.0 0.0 0.00 0.00 0.00 82 1011.2
20260504033538 37 0 0.0 0.0 0.00 0.00 0.00 82 1011.1
20260504033056 37 0 0.0 0.0 0.00 0.00 0.00 82 1011.1
20260504032539 37 0 0.0 1.0 0.00 0.00 0.00 82 1011.1
20260504032039 37 0 0.0 1.0 0.00 0.00 0.00 81 1011.1
20260504031551 37 0 0.0 0.0 0.00 0.00 0.00 81 1011.1
20260504031038 37 0 0.0 0.0 0.00 0.00 0.00 81 1011.0
20260504030542 37 0 0.0 0.0 0.00 0.00 0.00 81 1011.1
20260504030048 37 0 0.0 0.0 0.00 0.00 0.00 81 1011.0
20260504025539 38 0 0.0 0.0 0.00 0.00 0.00 81 1011.1
20260504025039 38 0 0.0 0.0 0.00 0.00 0.00 80 1011.1
20260504024550 38 0 0.0 0.0 0.00 0.00 0.00 80 1011.2
20260504024039 38 0 0.0 0.0 0.00 0.00 0.00 80 1011.1
20260504023539 38 0 0.0 0.0 0.00 0.00 0.00 80 1011.2
20260504023051 38 0 0.0 0.0 0.00 0.00 0.00 79 1011.1
20260504022537 39 0 0.0 0.0 0.00 0.00 0.00 79 1011.2
20260504022038 39 0 0.0 1.0 0.00 0.00 0.00 79 1011.1
20260504021553 39 0 0.0 1.0 0.00 0.00 0.00 79 1011.0
20260504021041 39 0 0.0 0.0 0.00 0.00 0.00 79 1011.1
20260504020541 39 0 0.0 0.0 0.00 0.00 0.00 77 1011.1
20260504020048 40 0 0.0 0.0 0.00 0.00 0.00 77 1011.1
20260504015536 40 0 0.0 0.0 0.00 0.00 0.00 77 1011.1
20260504015038 40 0 0.0 0.0 0.00 0.00 0.00 77 1011.1
20260504014550 40 0 0.0 0.0 0.00 0.00 0.00 77 1010.9
20260504014039 41 0 0.0 0.0 0.00 0.00 0.00 77 1010.9
20260504013535 41 0 0.0 0.0 0.00 0.00 0.00 76 1010.8
20260504013051 41 0 0.0 0.0 0.00 0.00 0.00 76 1010.8
20260504012542 41 0 0.0 0.0 0.00 0.00 0.00 75 1010.7
20260504012039 42 0 0.0 0.0 0.00 0.00 0.00 74 1010.6
20260504011552 42 0 0.0 0.0 0.00 0.00 0.00 73 1010.6
20260504011038 42 0 0.0 0.0 0.00 0.00 0.00 73 1010.5
20260504010539 43 0 0.0 0.0 0.00 0.00 0.00 71 1010.5
20260504010058 43 0 0.0 0.0 0.00 0.00 0.00 70 1010.4
20260504005540 43 0 0.0 0.0 0.00 0.00 0.00 70 1010.3
20260504005036 43 0 0.0 0.0 0.00 0.00 0.00 69 1010.2
20260504004550 43 0 0.0 0.0 0.00 0.00 0.00 68 1010.1
20260504004039 44 0 0.0 0.0 0.00 0.00 0.00 69 1010.1
20260504003543 44 0 0.0 0.0 0.00 0.00 0.00 69 1009.9
20260504003047 45 0 0.0 0.0 0.00 0.00 0.00 67 1009.8
20260504002539 45 0 0.0 0.0 0.00 0.00 0.00 67 1009.8
20260504002039 46 0 0.0 0.0 0.00 0.00 0.00 66 1009.8
20260504001607 46 0 0.0 0.0 0.00 0.00 0.00 65 1009.7
20260504001039 47 0 0.0 0.0 0.00 0.00 0.00 64 1009.7
20260504000540 47 0 0.0 1.0 0.00 0.00 0.00 62 1009.6
20260504000052 48 0 0.0 2.0 0.00 0.00 0.00 61 1009.5
20260503235540 48 20 0.0 2.0 0.00 0.00 0.00 62 1009.5
20260503235039 48 0 0.0 2.0 0.00 0.00 0.00 60 1009.3
20260503234550 49 0 0.0 3.0 0.00 0.00 0.00 60 1009.3
20260503234039 49 25 1.0 3.0 0.00 0.00 0.00 58 1009.2
20260503233538 49 25 1.0 3.0 0.00 0.00 0.00 58 1009.2
20260503233050 49 8 1.0 2.0 0.00 0.00 0.00 57 1009.0
20260503232541 49 357 0.0 3.0 0.00 0.00 0.00 60 1009.0
20260503232039 49 357 1.0 3.0 0.00 0.00 0.00 57 1008.9
20260503231550 50 247 0.0 3.0 0.00 0.00 0.00 61 1008.7
20260503231040 50 246 0.0 4.0 0.00 0.00 0.00 59 1008.5
20260503230535 50 0 0.0 4.0 0.00 0.00 0.00 56 1008.6
20260503230047 51 246 0.0 3.0 0.00 0.00 0.00 60 1008.5
20260503225539 51 0 0.0 3.0 0.00 0.00 0.00 57 1008.3
20260503225039 51 314 0.0 3.0 0.00 0.00 0.00 56 1008.3
20260503224547 51 16 1.0 3.0 0.00 0.00 0.00 56 1008.2
20260503224039 51 258 1.0 4.0 0.00 0.00 0.00 55 1008.1
20260503223542 52 0 1.0 4.0 0.00 0.00 0.00 55 1008.1
20260503223050 52 359 1.0 8.0 0.00 0.00 0.00 54 1008.1
20260503222537 52 345 2.0 8.0 0.00 0.00 0.00 54 1008.0
20260503222038 52 0 0.0 3.0 0.00 0.00 0.00 56 1007.9
20260503221551 52 0 0.0 4.0 0.00 0.00 0.00 55 1007.8
20260503221041 52 12 1.0 5.0 0.00 0.00 0.00 50 1007.8
20260503220539 52 89 2.0 5.0 0.00 0.00 0.00 52 1007.6
20260503220108 53 0 1.0 4.0 0.00 0.00 0.00 53 1007.7
20260503215539 53 4 1.0 4.0 0.00 0.00 0.00 54 1007.6
20260503215039 53 347 1.0 4.0 0.00 0.00 0.00 51 1007.6
20260503214547 53 340 1.0 4.0 0.00 0.00 0.00 54 1007.5
20260503214041 53 22 1.0 4.0 0.00 0.00 0.00 57 1007.4
20260503213539 53 333 1.0 3.0 0.00 0.00 0.00 54 1007.3
20260503213050 53 333 1.0 4.0 0.00 0.00 0.00 56 1007.4
20260503212539 53 0 1.0 4.0 0.00 0.00 0.00 53 1007.3
20260503212041 53 330 1.0 4.0 0.00 0.00 0.00 52 1007.2